Voltar ao catálogo

COSMOS 252 DEB

AtivoLEO
NORAD 3555·DEBRIS·🇷🇺 Russia

Lançado Nov 1, 1968 de Baikonur Cosmodrome

Loading…

Próximas Passagens (próximas 24 horas)

TLE

AtualizadoSource: Space-Track

Época: Sep 14, 2026, 10:05 UTC

1 03555U 68097H   26257.42044056  .00000634  00000-0  28117-3 0  9990
2 03555  62.3229  45.8775 0892800 193.2190 164.3951 13.08550482748488

Acompanhe COSMOS 252 DEB em tempo real com AllMySat

Download on the App Store